sat.trackr.live / text

‹ back to catalog

STARLINK-36314

NORAD 68741 · 2026-082P

PAYLOAD ACTIVE UNKNOWN

§ Identity

Operator
Country
US
Launch date
2026-04-15
Launch site
AFWTR
Launch vehicle
Mass (kg)
RCS (m²)

Purposes: comms

External: N2YO · Heavens-Above · Gunter

§ Orbital elements

Epoch: 2026-05-25T04:00:03.998880Z

Period
92.95 min
Inclination
97.2852°
Eccentricity
0.0001587
Mean motion
15.49187223 rev/d
Perigee alt
418.0 km
Apogee alt
420.2 km
Semi-major
6,797.2 km
B*
8.0376e-5
RAAN
8.7890°
Arg perigee
97.2303°
Mean anomaly
17.7276°
Rev number
600

§ Raw data

STARLINK-363141 68741U 26082P   26145.16671295  .00004283  00000+0  80376-4 0  99932 68741  97.2852   8.7890 0001587  97.2303  17.7276 15.49187223  6006

JSON: /api/v1/satellites/68741 · /tle

For live sub-satellite position, see the globe view (requires WebGL).

§ Visibility from observer

Set your observer location to see the next 7 days of passes ≥ 10°. The values pass through the URL so the page stays shareable.

No JS? Fill the form by hand. The geolocation button needs JavaScript.